Allentown, PA

6:23 PM EST on November 22, 2017 (GMT -0500)
Lehigh Valley International

Weather History for KABE - June, 2013

Change the Weather History Date:

Tuesday, June 25, 2013

  Actual Average Record
Temperature  
Mean Temperature 78 °F 72 °F  
Max Temperature 91 °F 83 °F 98 °F (1923)
Min Temperature 64 °F 61 °F 46 °F (1979)
Degree Days  
Heating Degree Days 0 0  
Month to date heating degree days 9 32  
Since 1 June heating degree days 9 32  
Since 1 July heating degree days 5404 5800  
Cooling Degree Days 13 7  
Month to date cooling degree days 135 119  
Year to date cooling degree days 207 164  
Since 1 June cooling degree days 135 119  
Growing Degree Days 26 (Base 50)    
Moisture  
Dew Point 68 °F    
Average Humidity 74    
Maximum Humidity 100    
Minimum Humidity 47    
Precipitation  
Precipitation T in 0.14 in 1.20 in (1919)
Month to date precipitation 6.48 3.57  
Year to date precipitation 20.03 20.39  
Snow  
Snow 0.00 in 0.00 in 0.00 in (2002)
Month to date snowfall 0.0 0.0  
Since 1 June snowfall 0.0 0.0  
Since 1 July snowfall 21.4 32.9  
Snow Depth 0.00 in    
Sea Level Pressure  
Sea Level Pressure 29.93 in    
Wind  
Wind Speed 7 mph (WSW)    
Max Wind Speed 22 mph    
Max Gust Speed 29 mph    
Visibility 8 miles    
Events Rain    
T = Trace of Precipitation, MM = Missing Value Source: NWS Daily Summary

Daily Weather History Graph

Daily Weather History Graph

Search for Another Location

Airport or City:

Trip Planner

Search our weather history database for the weather conditions in past years. The results will help you decide how hot, cold, wet, or windy it might be!

Date:

Astronomy

Jun. 25, 2013 Rise Set
Actual Time 5:32 AM EDT 8:36 PM EDT
Civil Twilight 4:58 AM EDT 9:10 PM EDT
Nautical Twilight 4:16 AM EDT 9:52 PM EDT
Astronomical Twilight 3:26 AM EDT 10:42 PM EDT
Moon 10:19 PM EDT (6/25) 8:10 AM EDT (6/25)
Length of Visible Light 16h 11m
Length of Day
15h 04m
Waning Gibbous, 93% of the Moon is Illuminated
Jun 25
Waning Gibbous
Jun 30
Last Quarter
Jul 8
New
Jul 15
First Quarter
Jul 22
Full

Hourly Weather History & Observations

Time (EDT) Temp. Heat Index Dew Point Humidity Pressure Visibility Wind Dir Wind Speed Gust Speed Precip Events Conditions
12:51 AM 68.0 °F - 66.0 °F 93% 30.01 in 6.0 mi North 3.5 mph - N/A   Clear
1:51 AM 69.1 °F - 66.9 °F 93% 30.00 in 6.0 mi Calm Calm - N/A   Clear
2:51 AM 68.0 °F - 66.0 °F 93% 29.99 in 5.0 mi West 4.6 mph - N/A   Clear
3:51 AM 66.9 °F - 66.0 °F 97% 29.98 in 4.0 mi SW 3.5 mph - N/A   Clear
4:07 AM 66.2 °F - 66.2 °F 100% 29.97 in 2.5 mi Calm Calm - N/A   Clear
4:33 AM 68.0 °F - 66.2 °F 94% 29.98 in 4.0 mi Calm Calm - N/A   Clear
4:51 AM 66.9 °F - 66.0 °F 97% 29.96 in 5.0 mi Calm Calm - N/A   Clear
5:51 AM 66.9 °F - 64.9 °F 93% 29.97 in 4.0 mi WSW 5.8 mph - N/A   Clear
6:51 AM 70.0 °F - 68.0 °F 93% 29.97 in 5.0 mi WSW 3.5 mph - N/A   Clear
7:51 AM 73.9 °F - 68.0 °F 82% 29.98 in 7.0 mi WSW 6.9 mph - N/A   Clear
8:51 AM 78.1 °F - 69.1 °F 74% 29.97 in 9.0 mi SW 5.8 mph - N/A   Clear
9:51 AM 81.0 °F 84.4 °F 70.0 °F 69% 29.98 in 9.0 mi West 8.1 mph - N/A   Clear
10:51 AM 84.0 °F 89.0 °F 71.1 °F 65% 29.97 in 9.0 mi WSW 8.1 mph - N/A   Clear
11:51 AM 87.1 °F 92.0 °F 70.0 °F 57% 29.96 in 10.0 mi West 8.1 mph - N/A   Clear
12:51 PM 87.1 °F 91.3 °F 69.1 °F 55% 29.93 in 10.0 mi West 9.2 mph - N/A   Partly Cloudy
1:51 PM 89.1 °F 94.1 °F 70.0 °F 53% 29.91 in 9.0 mi West 11.5 mph 19.6 mph N/A   Partly Cloudy
2:51 PM 87.1 °F 89.9 °F 66.9 °F 51% 29.89 in 10.0 mi West 12.7 mph 25.3 mph N/A   Mostly Cloudy
3:51 PM 89.1 °F 92.1 °F 66.9 °F 48% 29.89 in 10.0 mi West 20.7 mph 27.6 mph 0.00 in   Clear
4:51 PM 82.9 °F 85.0 °F 66.0 °F 56% 29.89 in 10.0 mi West 12.7 mph 21.9 mph N/A   Clear
5:51 PM 82.9 °F 85.4 °F 66.9 °F 58% 29.85 in 10.0 mi West 6.9 mph - N/A   Clear
6:51 PM 82.0 °F 84.9 °F 68.0 °F 62% 29.86 in 10.0 mi WSW 8.1 mph - N/A   Clear
7:51 PM 81.0 °F 84.1 °F 69.1 °F 67% 29.87 in 10.0 mi WSW 6.9 mph - N/A   Clear
8:51 PM 77.0 °F - 69.1 °F 76% 29.86 in 8.0 mi SW 4.6 mph - N/A   Scattered Clouds
9:51 PM 78.1 °F - 69.1 °F 74% 29.86 in 10.0 mi Calm Calm - N/A   Mostly Cloudy
10:51 PM 78.1 °F - 69.1 °F 74% 29.85 in 10.0 mi Calm Calm - N/A   Scattered Clouds
11:51 PM 75.0 °F - 66.0 °F 73% 29.84 in 10.0 mi WSW 6.9 mph - 0.00 in Rain Light Rain